This demonstration page uses our WeatherBlox Daily Observations layout. Learn more.

Left ArrowRight Arrow

Hourly Observations for March 12, 2020

Temp ( °F °C ) Dew Point ( °F °C ) Humidity (%) Winds ( mph kmh ) Pressure ( in mb ) Visibility ( mi km ) Precip ( " mm )
12:51 am 00:51 Clear 59 15 57 13.9 93 93 ENE 3 6 29.89 1012 10 16 0.00 0.00
1:51 am 01:51 Cloudy 60 15.6 57 13.9 90 90 E 7 11 29.88 1012 10 16 0.00 0.00
2:51 am 02:51 Mostly Cloudy 60 15.6 57 13.9 90 90 ENE 3 6 29.86 1011 10 16 0.00 0.00
3:51 am 03:51 Partly Cloudy 59 15 57 13.9 93 93 Calm 29.85 1011 10 16 0.00 0.00
4:51 am 04:51 Cloudy 58 14.4 57 13.9 97 97 Calm 29.85 1011 10 16 0.00 0.00
5:51 am 05:51 Cloudy 58 14.4 56 13.3 93 93 SE 3 6 29.84 1011 10 16 0.00 0.00
6:51 am 06:51 Cloudy 58 14.4 56 13.3 93 93 Calm 29.84 1011 10 16 0.00 0.00
7:51 am 07:51 Partly Cloudy 59 15 57 13.9 93 93 Calm 29.86 1011 10 16 0.00 0.00
8:51 am 08:51 Cloudy 61 16.1 57 13.9 87 87 Calm 29.88 1012 10 16 0.00 0.00
9:51 am 09:51 Cloudy 62 16.7 57 13.9 84 84 Calm 29.89 1012 10 16 0.00 0.00
10:51 am 10:51 Cloudy 63 17.2 57 13.9 81 81 WSW 3 6 29.89 1012 10 16 0.00 0.00
11:51 am 11:51 Cloudy 63 17.2 57 13.9 81 81 Calm 29.87 1012 10 16 0.00 0.00
12:51 pm 12:51 Mostly Cloudy 66 18.9 58 14.4 75 75 VRB 5 7 29.83 1010 10 16 0.00 0.00
1:51 pm 13:51 Mostly Cloudy 67 19.4 58 14.4 73 73 N 5 7 29.78 1008 10 16 0.00 0.00
2:51 pm 14:51 Mostly Cloudy 70 21.1 51 10.6 51 51 ESE 8 13 29.75 1008 10 16 0.00 0.00
3:51 pm 15:51 Partly Cloudy 69 20.6 51 10.6 53 53 E 7 11 29.76 1008 10 16 0.00 0.00
4:51 pm 16:51 Mostly Cloudy 66 18.9 54 12.2 65 65 E 9 15 29.77 1008 10 16 0.00 0.00
5:51 pm 17:51 Mostly Sunny 65 18.3 53 11.7 66 66 E 13 20 29.73 1007 10 16 0.00 0.00
6:51 pm 18:51 Mostly Cloudy 63 17.2 53 11.7 70 70 E 9 15 29.74 1007 10 16 0.00 0.00
7:51 pm 19:51 Cloudy 63 17.2 53 11.7 70 70 E 9 15 29.77 1008 10 16 0.00 0.00
8:21 pm 20:21 Cloudy 62 16.7 53 11.7 73 73 SSE 10 17 29.78 1008 10 16 0.00 0.00
8:30 pm 20:30 Cloudy 61 16 54 12 77 77 SSE 8 13 29.78 1009 10 16 0.00 0.00
8:51 pm 20:51 Cloudy with Light Rain 60 15.6 54 12.2 80 80 SSE 10 17 29.78 1009 10 16 0.00 0.00
9:51 pm 21:51 Cloudy 59 15 55 12.8 87 87 SE 14 22 29.78 1009 10 16 0.01 0.25
10:51 pm 22:51 Mostly Cloudy 58 14.4 55 12.8 90 90 E 9 15 29.76 1008 10 16 0.00 0.00
11:51 pm 23:51 Mostly Cloudy 59 15 54 12.2 83 83 E 10 17 29.77 1008 10 16 0.00 0.00

Powered by AerisWeather